Temperature
17 17 17 17 17 16 16 16 16 16 16 16 16 16 16 16 16 15 15 15 15 15 16 16 16 16 15 15 15 15 15 15 15 15 15 15 15 15 15 15 15 15 15
17 17 17 17 17 16 16 16 16 16 16 16 16 16 16 16 16 16 16 15 15 15 16 16 16 15 15 15 15 15 15 15 15 15 15 15 15 15 15 15 15 15 15
17 17 17 17 16 16 16 16 16 16 16 16 16 16 16 16 16 16 16 16 16 16 16 16 15 15 15 15 15 15 15 15 15 15 15 15 15 15 15 15 15 15 15
18 17 17 17 16 16 16 16 16 16 16 16 16 16 16 16 16 16 16 16 16 16 16 16 15 15 15 15 15 15 15 15 15 15 15 15 15 15 15 15 15 15 15
17 17 17 16 16 16 16 16 16 16 16 16 16 16 16 16 16 16 16 16 16 16 16 16 15 15 15 15 15 15 15 15 15 16 16 16 16 16 16 15 15 15 15
17 17 17 16 16 16 16 16 16 16 16 16 16 16 16 16 16 16 16 16 16 16 16 16 16 15 15 15 15 15 15 15 16 16 16 16 16 16 16 16 15 15 15
17 17 16 16 16 16 16 16 16 16 16 16 16 16 16 16 16 16 16 16 16 16 16 16 16 15 15 15 15 16 16 16 16 16 16 16 16 16 16 16 16 15 15
17 16 16 16 16 16 16 16 16 16 16 16 16 16 16 16 17 16 16 16 16 16 16 16 16 16 16 16 16 16 16 16 16 16 16 16 16 16 16 16 15 15 15
17 16 16 15 15 15 15 16 16 16 16 16 16 16 17 17 17 17 17 16 16 16 16 16 16 16 16 16 15 15 15 15 15 15 15 15 15 15 15 15 15 15 15
16 16 15 15 15 15 15 16 16 16 16 17 17 17 17 17 17 17 17 17 17 17 16 16 16 16 16 16 15 15 15 15 15 15 15 15 15 15 15 15 15 15 15
16 16 15 15 15 15 15 15 16 16 16 16 17 17 17 17 17 17 17 17 17 17 16 16 16 16 16 16 15 15 15 15 15 15 15 15 15 15 15 15 15 15 15
16 16 15 15 15 15 15 15 16 16 16 16 17 17 17 17 17 17 17 17 17 17 17 16 16 16 16 15 15 15 15 15 15 15 15 15 15 14 14 14 14 14 14
16 16 15 15 15 15 15 15 15 16 16 16 16 16 17 17 17 17 17 17 17 17 17 16 16 16 16 15 15 15 15 15 15 15 15 14 14 14 14 14 14 14 14
16 16 16 15 15 15 15 16 16 16 16 16 16 16 17 17 17 17 17 17 17 16 16 16 16 16 16 15 15 15 15 15 15 14 14 14 14 14 14 14 13 13 13
16 16 15 15 15 15 15 16 16 16 16 16 16 16 16 17 17 16 16 16 16 16 16 16 16 16 15 15 15 15 15 14 14 14 14 14 14 13 13 13 13 13 13
16 16 16 16 15 15 15 15 16 16 16 16 16 16 16 16 16 16 16 16 16 16 16 16 15 15 15 15 15 15 14 14 14 14 14 14 13 13 13 13 13 13 12
16 16 16 15 15 15 16 16 16 16 15 15 15 16 16 16 16 16 16 16 16 15 15 15 15 15 15 15 14 14 14 14 14 14 14 14 13 13 13 13 12 12 12
16 16 16 16 15 16 16 16 15 15 15 15 15 15 15 15 15 15 15 15 15 15 15 15 15 15 14 14 14 14 14 14 14 14 14 13 13 13 13 12 12 12 12
16 16 16 16 16 16 16 16 15 15 15 15 15 15 15 15 15 15 15 15 15 15 15 14 14 14 14 14 14 14 14 14 14 14 14 13 13 13 13 12 12 12 12
16 16 16 16 16 16 15 15 15 15 15 15 15 15 15 15 15 15 15 14 14 14 14 14 14 14 14 14 13 14 14 14 14 14 13 13 13 13 12 12 12 12 11
16 16 16 15 15 15 15 15 15 15 15 15 15 15 15 14 14 14 14 14 14 14 14 14 14 13 13 13 13 13 13 13 14 14 13 13 13 12 12 12 12 11 11
16 16 16 16 15 15 15 15 15 15 15 15 15 14 14 14 14 14 14 14 14 14 14 14 13 13 13 13 13 12 12 13 13 13 13 13 12 12 12 12 11 11 11
16 16 16 16 16 16 15 15 15 15 15 14 14 14 14 14 14 14 14 14 14 14 14 14 13 13 13 13 12 12 12 12 12 12 12 12 12 12 11 11 11 11 10
16 16 16 16 16 16 15 15 15 15 15 15 15 15 14 14 14 14 14 14 14 14 13 13 13 13 13 13 12 12 12 11 11 11 11 11 11 11 11 11 10 10 10
16 16 16 16 16 16 15 15 15 15 15 15 15 14 14 14 14 14 14 14 13 13 13 13 13 13 12 12 12 12 12 11 11 10 10 11 10 10 10 10 10 10 9
16 16 16 16 16 16 15 15 15 15 15 15 14 14 14 14 14 14 14 13 13 13 13 13 12 12 12 12 12 12 11 11 11 10 10 10 10 9 9 9 9 9 9
Wind_Speed
11 16 24 24 23 22 21 20 19 18 18 18 18 18 19 19 19 20 20 21 20 20 21 21 21 21 21 21 20 20 20 20 20 20 19 19 19 19 18 18 17 17 19
14 21 26 25 24 22 21 20 19 18 18 18 18 18 19 19 20 20 20 21 20 21 21 20 20 20 20 19 18 18 18 18 19 18 17 18 18 18 18 18 17 16 19
18 23 25 25 24 23 21 20 19 19 18 18 18 18 19 19 20 20 20 20 20 20 20 20 19 19 18 17 16 16 16 15 15 15 15 15 16 17 17 17 17 18 18
20 23 24 26 24 23 22 21 20 19 18 18 19 19 19 20 20 20 20 20 20 19 19 19 18 18 17 16 16 16 16 16 15 14 14 13 14 16 17 17 17 17 17
18 22 25 26 25 23 22 20 20 19 19 19 19 19 19 20 20 20 20 19 19 19 18 18 17 16 15 15 16 16 17 17 17 15 15 14 13 15 16 16 16 16 16
15 21 25 26 24 23 22 20 20 19 19 19 19 19 20 20 20 20 19 19 18 18 17 17 16 14 14 15 15 16 16 17 16 15 13 12 12 14 14 14 14 14 14
16 21 24 25 24 23 21 20 20 19 19 19 19 20 20 20 19 19 18 18 17 17 16 15 14 13 13 14 14 15 15 16 15 13 12 11 12 13 13 13 13 13 13
17 19 23 25 24 23 21 20 20 19 19 19 20 20 20 20 19 18 17 17 16 16 15 14 12 11 11 11 12 12 12 12 11 11 10 10 11 11 11 11 11 11 11
17 16 18 21 22 22 21 20 20 19 19 19 20 20 20 19 18 18 16 16 15 15 14 12 11 10 9 9 9 10 10 11 10 8 8 8 9 10 10 9 9 10 10
14 13 14 17 19 19 19 20 20 19 19 20 20 20 20 19 18 17 16 15 14 13 12 11 9 8 6 6 6 7 7 8 8 7 7 7 8 8 8 8 8 8 8
16 13 13 14 16 17 18 18 19 19 20 20 20 21 19 16 16 15 15 14 13 12 11 9 7 6 4 3 3 4 4 5 6 6 7 7 7 6 6 6 6 6 6
19 17 13 12 14 15 15 16 16 16 18 17 18 18 16 15 15 14 15 14 13 12 10 8 6 4 2 1 1 0 2 3 5 6 7 7 6 5 5 4 4 4 4
19 17 15 13 14 13 12 14 12 13 15 16 17 17 15 14 12 12 12 12 11 10 9 7 6 4 4 4 4 4 4 4 6 6 8 9 7 6 5 4 4 3 3
18 17 16 14 13 13 14 12 12 11 12 12 15 16 14 11 10 11 10 11 11 10 8 7 6 6 7 7 7 6 5 6 7 8 9 10 9 7 6 5 5 5 4
17 17 16 15 14 13 12 11 12 11 12 14 15 16 16 11 9 10 10 11 11 10 9 7 7 7 7 7 7 6 6 6 8 9 9 11 11 10 8 7 7 7 6
16 17 16 16 15 14 10 9 10 13 14 14 15 17 18 15 13 10 8 9 10 12 12 10 8 7 5 5 4 5 5 5 7 8 10 11 12 12 11 9 8 8 8
15 16 17 17 15 15 13 12 12 13 14 13 14 17 18 17 15 12 8 8 10 13 12 9 7 5 3 3 2 4 4 5 6 8 9 11 12 13 13 11 10 9 9
13 15 16 16 16 15 12 11 11 13 14 13 15 16 17 17 16 12 7 7 11 11 9 5 3 3 2 2 2 2 3 4 6 8 9 10 11 11 12 12 11 9 8
12 14 14 14 15 15 12 10 10 11 11 12 14 14 15 16 16 12 8 8 10 7 5 3 3 3 3 3 3 3 3 3 5 7 7 8 10 10 10 9 9 8 6
10 12 13 13 14 13 10 8 7 7 7 10 11 12 14 14 14 12 8 8 9 4 3 3 3 3 2 3 2 3 4 4 4 4 5 6 6 6 7 6 5 5 4
10 11 12 13 12 11 9 9 8 8 7 6 7 12 13 13 13 11 6 6 6 5 5 5 3 3 3 2 1 3 3 4 4 3 3 2 1 2 3 4 4 4 2
11 12 12 13 13 12 10 9 6 6 5 6 6 9 12 12 12 11 8 5 5 4 4 4 4 3 3 3 3 1 3 4 3 2 1 1 1 1 2 2 3 3 2
11 12 12 12 12 12 10 6 5 4 3 4 5 6 7 11 11 10 9 7 5 5 5 4 4 5 4 3 3 3 3 4 2 2 2 2 1 2 2 3 3 3 3
12 11 11 12 12 11 11 10 10 8 7 7 6 6 5 9 10 10 9 7 5 4 4 4 4 3 4 3 3 3 4 3 3 2 1 2 3 2 2 2 4 4 4
10 10 10 11 11 11 11 12 11 9 7 5 5 6 6 5 7 8 8 6 5 4 4 3 3 3 4 4 3 2 3 3 4 4 3 1 1 1 2 2 3 4 5
8 8 8 10 10 10 11 11 11 11 9 8 7 8 6 4 3 5 7 6 5 4 4 3 3 4 4 4 3 3 3 3 3 4 5 3 3 1 2 2 3 3 5
Wind_Direction
153 155 147 142 137 133 129 125 121 118 115 113 111 109 109 109 109 109 108 106 105 104 101 99 97 96 96 94 91 88 85 82 79 75 74 74 75 76 74 71 68 65 68
147 151 146 142 138 135 131 127 124 122 119 116 114 113 113 112 111 111 109 106 105 103 102 100 100 99 97 95 93 91 90 85 81 78 73 72 74 76 74 73 72 70 69
144 147 145 142 139 136 133 130 128 125 122 118 116 116 116 115 112 111 108 106 105 103 103 103 102 100 96 92 89 90 93 90 84 78 72 69 73 76 75 73 72 71 70
144 145 145 142 140 138 136 134 131 129 126 121 119 118 117 116 113 111 108 107 106 105 105 104 103 99 93 87 85 88 90 89 90 82 72 69 72 76 75 74 73 72 70
142 145 146 143 142 141 139 137 134 132 128 125 122 120 118 117 115 112 110 109 108 108 108 107 104 98 90 84 84 89 91 92 92 85 77 72 73 77 76 74 73 72 70
140 144 146 144 143 143 141 139 137 134 131 128 126 123 121 119 117 115 114 113 112 112 112 110 105 98 90 85 86 91 93 98 95 87 81 77 76 79 78 76 74 73 71
141 144 147 145 145 145 143 141 139 137 135 133 130 128 125 122 121 120 119 118 117 116 116 114 109 100 93 87 86 91 93 99 97 91 85 83 83 82 79 77 75 74 73
145 146 148 147 147 146 145 142 141 140 139 137 135 132 129 127 127 126 124 122 122 120 118 117 113 105 96 89 86 90 95 97 99 94 90 91 91 87 83 80 77 76 75
145 146 148 149 149 148 146 145 144 143 142 141 138 136 133 132 132 132 129 128 126 125 123 121 118 111 101 92 85 84 95 104 106 106 100 100 99 94 89 85 82 80 78
146 148 148 149 148 147 147 147 146 145 143 141 138 138 137 136 135 135 134 132 131 131 130 130 127 121 109 95 83 84 100 114 112 123 122 118 112 105 98 93 89 86 83
154 154 152 149 148 148 148 149 147 147 145 142 142 141 140 139 138 138 140 140 139 140 141 142 142 139 126 99 79 86 105 129 133 142 146 141 131 121 114 107 102 98 93
163 161 159 155 153 152 152 150 148 149 149 147 149 148 148 148 148 149 150 151 151 152 154 159 163 165 172 240 310 76 159 163 168 173 174 169 159 150 145 138 129 120 114
165 164 165 161 159 157 152 154 154 154 156 156 158 158 157 156 157 158 159 162 164 166 171 180 188 204 226 250 269 269 234 210 197 195 194 189 185 183 182 178 175 168 157
166 169 168 166 163 162 159 162 162 162 166 168 170 167 163 162 165 168 171 175 177 182 189 198 209 222 238 252 257 255 239 222 208 206 205 204 205 207 209 208 208 207 206
168 171 171 169 168 167 165 168 170 173 177 179 179 178 173 169 172 177 183 185 191 195 200 209 219 229 241 247 243 232 230 217 209 210 215 219 220 222 225 226 227 227 226
171 173 174 174 173 171 171 173 175 179 182 183 183 183 180 177 178 179 185 191 199 205 209 212 217 221 227 226 227 228 232 229 223 222 228 229 230 231 233 235 238 239 238
175 172 174 177 176 175 176 178 179 181 180 184 186 185 184 181 180 181 184 191 200 205 208 210 216 216 223 226 238 243 245 249 245 240 238 236 237 238 239 240 242 244 246
175 172 175 178 179 179 178 178 179 180 178 182 183 183 184 184 183 180 181 191 196 195 194 190 188 193 212 221 242 260 263 265 260 252 247 243 242 244 243 241 242 244 250
179 174 176 176 180 182 179 176 176 178 178 178 179 180 182 183 183 180 181 187 186 183 187 187 185 183 203 226 244 260 266 261 260 260 252 248 243 241 238 238 238 240 247
183 177 178 177 180 181 176 170 169 172 174 174 178 181 181 183 183 180 184 188 183 177 188 188 190 188 196 210 248 272 271 267 266 260 257 253 242 232 225 221 221 227 238
182 181 183 181 181 176 175 176 176 180 178 176 179 182 183 182 182 180 183 186 185 188 195 192 184 192 211 179 191 300 300 284 275 273 262 251 234 218 201 202 202 195 199
186 185 186 185 182 181 182 181 177 171 175 179 176 181 184 182 181 184 182 182 185 187 190 189 180 182 208 180 173 217 302 320 326 331 329 239 219 129 121 137 144 144 137
191 187 187 189 187 185 181 166 146 132 136 164 180 183 185 183 182 181 184 180 177 181 192 195 188 188 208 215 193 185 207 245 294 334 16 25 53 74 76 91 97 102 108
200 192 184 184 185 184 177 174 172 178 185 191 184 181 177 178 177 179 178 175 170 173 184 196 190 191 191 214 225 225 219 202 221 274 322 23 50 54 46 74 86 86 90
196 190 185 179 182 181 179 180 182 187 189 171 162 167 174 169 169 172 169 165 164 167 179 190 194 198 204 210 211 216 228 230 224 225 248 239 54 41 41 54 74 82 83
190 187 182 177 180 180 179 181 184 185 177 165 171 177 174 166 163 160 156 154 158 160 166 184 194 198 209 215 218 215 208 215 217 217 232 224 214 166 66 48 61 75 82
Height
1525 1529 1533 1535 1537 1539 1540 1541 1542 1543 1544 1545 1545 1546 1548 1549 1551 1552 1553 1555 1556 1557 1558 1558 1559 1560 1560 1560 1561 1561 1561 1561 1561 1561 1560 1560 1560 1559 1559 1559 1558 1557 1557
1522 1528 1532 1535 1537 1539 1541 1542 1543 1544 1545 1546 1547 1548 1549 1551 1552 1554 1555 1556 1557 1558 1559 1560 1561 1562 1562 1563 1563 1563 1564 1564 1563 1563 1563 1563 1563 1562 1562 1561 1561 1560 1559
1523 1528 1532 1535 1538 1540 1541 1542 1544 1545 1546 1547 1548 1550 1551 1552 1554 1555 1556 1558 1559 1560 1561 1562 1563 1564 1565 1565 1566 1566 1566 1566 1566 1566 1566 1565 1565 1565 1564 1564 1563 1563 1562
1523 1528 1532 1535 1538 1540 1542 1543 1545 1546 1547 1549 1550 1551 1553 1554 1555 1557 1558 1559 1561 1562 1563 1564 1565 1566 1567 1567 1568 1568 1568 1569 1569 1569 1568 1568 1567 1567 1567 1566 1565 1565 1564
1524 1528 1532 1536 1538 1540 1542 1544 1545 1547 1549 1550 1551 1553 1554 1556 1557 1558 1560 1561 1562 1564 1565 1566 1567 1568 1569 1569 1570 1570 1571 1571 1571 1571 1570 1570 1570 1569 1569 1568 1567 1567 1566
1524 1529 1533 1536 1539 1541 1543 1545 1546 1548 1550 1551 1553 1554 1556 1557 1559 1560 1562 1563 1564 1566 1567 1568 1569 1570 1571 1572 1572 1573 1573 1573 1573 1573 1572 1572 1572 1571 1570 1570 1569 1568 1568
1525 1529 1533 1536 1539 1541 1543 1545 1547 1549 1551 1552 1554 1556 1557 1559 1560 1562 1563 1565 1566 1568 1569 1570 1572 1572 1573 1574 1574 1575 1575 1575 1575 1575 1574 1574 1573 1573 1572 1571 1571 1570 1569
1525 1529 1534 1537 1539 1542 1544 1546 1548 1550 1552 1554 1555 1557 1559 1560 1562 1564 1565 1567 1568 1570 1571 1572 1574 1574 1575 1576 1576 1576 1576 1577 1577 1576 1576 1576 1575 1574 1574 1573 1572 1572 1571
1526 1530 1534 1537 1540 1542 1545 1547 1549 1551 1553 1555 1556 1558 1560 1562 1564 1565 1567 1568 1570 1571 1573 1574 1575 1576 1577 1577 1578 1578 1578 1578 1578 1578 1578 1577 1577 1576 1575 1574 1574 1573 1572
1527 1531 1534 1537 1540 1542 1545 1547 1549 1551 1554 1556 1558 1559 1561 1563 1565 1567 1568 1570 1571 1573 1574 1575 1576 1577 1578 1579 1579 1579 1579 1579 1579 1579 1579 1578 1578 1577 1576 1576 1575 1574 1573
1527 1531 1534 1537 1540 1542 1545 1547 1549 1552 1554 1556 1558 1560 1562 1564 1566 1567 1569 1571 1573 1574 1575 1576 1577 1578 1579 1579 1579 1580 1580 1580 1580 1579 1579 1579 1578 1578 1577 1576 1575 1575 1574
1525 1529 1533 1536 1539 1542 1544 1547 1549 1552 1554 1556 1559 1561 1563 1565 1566 1568 1570 1572 1573 1575 1576 1577 1578 1579 1579 1580 1580 1580 1580 1580 1580 1580 1579 1579 1579 1578 1577 1576 1576 1575 1574
1523 1527 1532 1535 1539 1541 1544 1546 1549 1551 1554 1556 1559 1561 1563 1565 1567 1568 1570 1571 1573 1574 1576 1577 1578 1579 1579 1580 1580 1580 1580 1580 1580 1580 1579 1579 1578 1578 1577 1576 1575 1574 1574
1523 1526 1530 1534 1537 1541 1543 1546 1548 1551 1553 1556 1558 1560 1562 1564 1566 1568 1570 1571 1573 1574 1575 1576 1577 1578 1579 1579 1579 1579 1579 1579 1579 1579 1579 1579 1578 1577 1576 1576 1575 1574 1573
1521 1525 1529 1533 1536 1539 1542 1545 1547 1550 1553 1555 1557 1559 1562 1564 1566 1567 1569 1571 1572 1573 1575 1576 1576 1577 1578 1578 1578 1578 1578 1578 1578 1578 1578 1578 1577 1576 1576 1575 1574 1573 1572
1519 1523 1527 1531 1535 1538 1541 1544 1546 1549 1552 1554 1556 1558 1561 1563 1565 1566 1568 1570 1571 1572 1574 1575 1576 1576 1577 1577 1577 1577 1577 1577 1577 1577 1577 1576 1576 1575 1574 1573 1572 1572 1571
1518 1522 1525 1529 1533 1536 1539 1543 1545 1548 1550 1553 1555 1557 1559 1561 1563 1565 1567 1568 1570 1571 1572 1573 1574 1574 1575 1575 1576 1576 1576 1576 1575 1575 1575 1574 1574 1573 1572 1572 1571 1570 1569
1516 1519 1523 1527 1531 1534 1537 1541 1543 1546 1549 1551 1554 1556 1558 1560 1562 1564 1565 1567 1568 1569 1570 1571 1572 1573 1573 1573 1574 1574 1574 1574 1573 1573 1572 1571 1571 1570 1570 1569 1569 1568 1567
1513 1517 1520 1524 1528 1531 1535 1538 1541 1544 1547 1549 1552 1554 1556 1558 1560 1562 1563 1565 1566 1567 1568 1569 1570 1570 1571 1571 1571 1571 1571 1571 1571 1570 1569 1568 1568 1567 1567 1567 1566 1566 1565
1512 1515 1518 1521 1525 1529 1532 1535 1539 1542 1544 1547 1549 1551 1553 1555 1557 1559 1561 1562 1564 1565 1566 1566 1567 1568 1568 1569 1568 1568 1568 1568 1567 1567 1566 1565 1565 1564 1564 1564 1564 1563 1563
1509 1512 1516 1518 1521 1525 1528 1531 1534 1537 1540 1543 1546 1548 1551 1553 1555 1556 1558 1559 1561 1562 1563 1564 1564 1565 1565 1566 1566 1565 1564 1564 1563 1563 1562 1562 1562 1561 1561 1561 1561 1561 1560
1506 1509 1512 1515 1518 1521 1524 1527 1531 1534 1537 1540 1542 1545 1548 1550 1551 1553 1555 1556 1558 1559 1560 1560 1561 1561 1562 1563 1562 1562 1561 1561 1559 1559 1559 1559 1558 1558 1558 1558 1558 1557 1557
1503 1505 1508 1511 1514 1518 1521 1525 1528 1531 1534 1537 1538 1541 1544 1546 1548 1550 1552 1553 1554 1555 1556 1557 1558 1558 1558 1559 1559 1559 1558 1557 1556 1555 1555 1555 1555 1555 1555 1555 1554 1554 1554
1499 1502 1505 1508 1511 1515 1518 1521 1523 1525 1528 1531 1534 1537 1540 1542 1544 1546 1548 1549 1550 1551 1552 1553 1554 1554 1555 1554 1555 1555 1555 1554 1554 1552 1552 1552 1552 1551 1551 1551 1551 1550 1550
1496 1499 1502 1505 1508 1511 1514 1517 1520 1523 1525 1528 1531 1534 1536 1538 1540 1542 1544 1545 1546 1547 1548 1549 1550 1550 1550 1550 1550 1550 1550 1550 1550 1549 1548 1547 1548 1547 1547 1547 1547 1546 1546
1492 1495 1498 1501 1505 1508 1511 1513 1516 1519 1521 1524 1527 1529 1532 1534 1537 1538 1540 1541 1542 1543 1543 1545 1545 1546 1546 1546 1546 1545 1545 1545 1544 1544 1544 1543 1543 1543 1543 1542 1542 1542 1542